Weather History for Hettinger, ND

Change the Weather History Date:

Monday, December 30, 2013

  Actual Average Record
Temperature  
Mean Temperature 20 °F -  
Max Temperature 30 °F 28 °F 46 °F (2011)
Min Temperature 10 °F 5 °F -15 °F (2008)
Degree Days  
Heating Degree Days 45 49  
Month to date heating degree days 1638 1401  
Since 1 July heating degree days 3662 3531  
Moisture  
Dew Point 14 °F    
Average Humidity 84    
Maximum Humidity 88    
Minimum Humidity 73    
Precipitation  
Precipitation T in 0.01 in 0.05 in (2003)
Month to date precipitation 0.13 0.30  
Year to date precipitation 24.86 16.09  
Sea Level Pressure  
Sea Level Pressure 30.03 in    
Wind  
Wind Speed 14 mph (NW)    
Max Wind Speed 29 mph    
Max Gust Speed 34 mph    
Visibility 7 miles    
Events Snow    
T = Trace of Precipitation, MM = Missing Value Source: NWS Daily Summary

Daily Weather History Graph

Daily Weather History Graph

Search for Another Location

Airport:

Trip Planner

Search our weather history database for the weather conditions in past years. The results will help you decide how hot, cold, wet, or windy it might be!

Date:

Astronomy

Dec. 30, 2013 Rise Set
Actual Time 7:32 AM MST 4:14 PM MST
Civil Twilight 6:58 AM MST 4:48 PM MST
Nautical Twilight 6:20 AM MST 5:26 PM MST
Astronomical Twilight 5:43 AM MST 6:03 PM MST
Moon 5:21 AM MST (12/30) 2:52 PM MST (12/30)
Length of Visible Light 9h 50m
Length of Day
8h 41m
Waning Crescent, 4% of the Moon is Illuminated
Dec 30
Waning Crescent
Jan 1
New
Jan 7
First Quarter
Jan 15
Full
Jan 23
Last Quarter

Hourly Weather History & Observations

Time (MST) Temp. Windchill Dew Point Humidity Pressure Visibility Wind Dir Wind Speed Gust Speed Precip Events Conditions
12:11 AM 18.0 °F 12.7 °F 15.1 °F 88% 29.81 in 4.0 mi South 3.5 mph - 0.00 in Snow Light Snow
12:23 AM 18.0 °F 11.1 °F 15.1 °F 88% 29.81 in 9.0 mi South 4.6 mph - 0.00 in   Overcast
12:53 AM 19.9 °F 10.1 °F 17.1 °F 89% 29.94 in 3.0 mi WSW 8.1 mph - 0.00 in Snow Light Snow
1:01 AM 21.0 °F 13.4 °F 18.0 °F 88% 29.80 in 2.5 mi West 5.8 mph - 0.00 in Snow Light Snow
1:09 AM 21.0 °F 11.4 °F 18.0 °F 88% 29.80 in 3.0 mi West 8.1 mph - 0.00 in Snow Light Snow
1:25 AM 21.9 °F 13.4 °F 19.0 °F 89% 29.80 in 3.0 mi West 6.9 mph - 0.00 in Snow Light Snow
1:31 AM 21.9 °F 14.5 °F 19.9 °F 92% 29.80 in 1.8 mi West 5.8 mph - 0.00 in Snow Light Snow
1:44 AM 23.0 °F 18.4 °F 21.0 °F 92% 29.80 in 3.0 mi West 3.5 mph - 0.00 in Snow Light Snow
1:53 AM 24.1 °F 18.2 °F 21.9 °F 91% 29.92 in 2.5 mi West 4.6 mph - 0.00 in Snow Light Snow
2:02 AM 26.1 °F 17.6 °F 23.0 °F 88% 29.80 in 4.0 mi West 8.1 mph - 0.00 in Snow Light Snow
2:09 AM 26.1 °F 18.4 °F 23.0 °F 88% 29.80 in 8.0 mi WNW 6.9 mph - 0.00 in Snow Light Snow
2:20 AM 25.0 °F 17.1 °F 23.0 °F 92% 29.80 in 2.5 mi WNW 6.9 mph - 0.00 in Snow Light Snow
2:31 AM 26.1 °F 17.6 °F 23.0 °F 88% 29.80 in 5.0 mi West 8.1 mph - 0.00 in Snow Light Snow
2:38 AM 26.1 °F 16.8 °F 24.1 °F 92% 29.80 in 6.0 mi West 9.2 mph - 0.00 in Snow Light Snow
2:44 AM 26.1 °F 16.8 °F 24.1 °F 92% 29.80 in 5.0 mi West 9.2 mph - 0.00 in Snow Light Snow
2:53 AM 28.0 °F 17.5 °F 25.0 °F 88% 29.92 in 7.0 mi WNW 12.7 mph - 0.00 in Snow Light Snow
3:53 AM 28.9 °F 15.1 °F 25.0 °F 85% 29.94 in 10.0 mi WNW 23.0 mph 31.1 mph 0.00 in   Overcast
4:53 AM 27.0 °F 11.6 °F 23.0 °F 85% 29.98 in 10.0 mi NW 26.5 mph 29.9 mph N/A   Overcast
5:30 AM 24.1 °F 7.1 °F 19.9 °F 84% 29.88 in 9.0 mi NW 28.8 mph - N/A   Overcast
5:53 AM 23.0 °F 6.3 °F 19.0 °F 85% 30.03 in 8.0 mi NW 26.5 mph 34.5 mph N/A   Overcast
6:53 AM 19.9 °F 2.8 °F 16.0 °F 85% 30.08 in 10.0 mi NW 24.2 mph 31.1 mph N/A   Overcast
7:15 AM 19.0 °F 1.6 °F 15.1 °F 85% 29.96 in 10.0 mi NW 24.2 mph - N/A   Overcast
7:46 AM 18.0 °F 1.3 °F 14.0 °F 84% 29.99 in 10.0 mi NNW 20.7 mph - N/A   Overcast
7:53 AM 18.0 °F 0.2 °F 12.9 °F 81% 30.13 in 10.0 mi NW 24.2 mph - N/A   Overcast
8:51 AM 17.6 °F 0.9 °F 12.2 °F 79% 30.05 in 8.0 mi NW 20.7 mph - N/A   Overcast
8:53 AM 17.1 °F -0.3 °F 12.0 °F 81% 30.20 in 8.0 mi NW 21.9 mph - N/A   Overcast
9:53 AM 16.0 °F 0.6 °F 10.9 °F 81% 30.24 in 9.0 mi NW 16.1 mph - 0.00 in   Overcast
10:34 AM 16.0 °F 0.6 °F 10.9 °F 81% 30.12 in 6.0 mi NW 16.1 mph - 0.00 in Snow Light Snow
10:53 AM 16.0 °F 1.7 °F 10.9 °F 81% 30.26 in 6.0 mi NW 13.8 mph - 0.00 in Snow Light Snow
11:53 AM 17.1 °F -0.3 °F 12.0 °F 81% 30.23 in 10.0 mi WNW 21.9 mph - 0.00 in   Overcast
12:36 PM 17.1 °F 1.5 °F 10.9 °F 77% 30.11 in 9.0 mi NW 17.3 mph - 0.00 in Snow Light Snow
12:49 PM 15.8 °F 0.9 °F 10.4 °F 79% 30.11 in 9.0 mi NW 15.0 mph - 0.00 in Snow Light Snow
12:53 PM 16.0 °F 0.6 °F 10.0 °F 77% 30.25 in 9.0 mi NW 16.1 mph - 0.00 in   Overcast
1:02 PM 16.0 °F 0.6 °F 10.0 °F 77% 30.11 in 10.0 mi WNW 16.1 mph - N/A   Overcast
1:53 PM 16.0 °F 1.1 °F 9.0 °F 74% 30.23 in 10.0 mi WNW 15.0 mph - N/A   Overcast
2:22 PM 15.1 °F -0.1 °F 8.1 °F 74% 30.09 in 10.0 mi NW 15.0 mph - N/A   Scattered Clouds
2:53 PM 15.1 °F 0.5 °F 9.0 °F 77% 30.22 in 10.0 mi NW 13.8 mph - N/A   Overcast
3:53 PM 12.9 °F 5.2 °F 8.1 °F 81% 30.23 in 10.0 mi NNW 4.6 mph - N/A   Mostly Cloudy
4:53 PM 12.0 °F - 8.1 °F 84% 30.23 in 10.0 mi Calm Calm - N/A   Overcast
5:04 PM 12.0 °F - 8.1 °F 84% 30.10 in 10.0 mi Calm Calm - N/A   Overcast
5:53 PM 12.9 °F - 8.1 °F 81% 30.24 in 10.0 mi Calm Calm - N/A   Overcast
6:53 PM 12.0 °F 1.5 °F 8.1 °F 84% 30.24 in 10.0 mi ENE 6.9 mph - N/A   Overcast
7:05 PM 12.0 °F 0.5 °F 7.0 °F 80% 30.09 in 10.0 mi ENE 8.1 mph - N/A   Overcast
7:18 PM 12.0 °F 4.1 °F 7.0 °F 80% 30.07 in 10.0 mi ENE 4.6 mph - N/A   Overcast
7:53 PM 10.9 °F -0.8 °F 7.0 °F 84% 30.21 in 10.0 mi East 8.1 mph - N/A   Overcast
8:53 PM 10.9 °F -1.8 °F 6.1 °F 81% 30.20 in 10.0 mi East 9.2 mph - N/A   Unknown
9:53 PM 10.9 °F -1.8 °F 6.1 °F 81% 30.19 in 10.0 mi East 9.2 mph - 0.00 in   Overcast
10:30 PM 10.9 °F -1.8 °F 7.0 °F 84% 30.02 in 3.0 mi SE 9.2 mph - 0.00 in Snow Light Snow
10:53 PM 10.0 °F -1.9 °F 6.1 °F 84% 30.17 in 9.0 mi SE 8.1 mph - 0.00 in   Overcast
11:16 PM 10.0 °F -2.9 °F 7.0 °F 87% 30.01 in 2.0 mi SE 9.2 mph - 0.00 in Snow Light Snow
11:29 PM 10.0 °F -1.9 °F 6.1 °F 84% 30.00 in 2.0 mi East 8.1 mph - 0.00 in Snow Light Snow
11:38 PM 10.0 °F -2.9 °F 6.1 °F 84% 30.00 in 1.8 mi ESE 9.2 mph - 0.00 in Snow Light Snow
11:53 PM 10.0 °F -2.9 °F 6.1 °F 84% 30.14 in 1.8 mi ESE 9.2 mph - 0.00 in Snow Light Snow